Tracking 27107 objects as of 21-Mar-2023
HD Live streaming from Space Station
objects crossing your sky now

CZ-3C DEB

Track CZ-3C DEB now!


NORAD ID: 40174
Int'l Code: 2010-057AC
Perigee: 564.4 km
Apogee: 34,614.1 km
Inclination: 20.4 °
Period: 615.2 minutes
Semi major axis: 23960 km
RCS: Unknown
Launch date: October 31, 2010
Source: People's Republic of China (PRC)
Launch site: Xichang Space Center, China (XSC)

Note: This is SATELLITE DEBRIS
Your satellite tracking list
Your tracking list is empty




NASA's NSSDC Master Catalog

Two Line Element Set (TLE):
1 40174U 10057AC  23079.95807351  .00000448  00000-0  64508-2 0  9999
2 40174  20.3607  28.4304 7105464   6.5071   5.5427  2.34080892 97963
Source of the keplerian elements: AFSPC